User: anonymous   Login
Location: Kaseke
(18.0171°S, 31.0526°E)
Time: 09:29:37
(UTC+00:00)
Language:

CZ-4B DEB - Orbit

View from above orbital plane
View from above orbital plane
View from above satellite
View from above satellite

Ground track
Ground track

The orbit data is extracted from the following two-line orbital elements,

1 27433U 02024D   20270.83506125 +.00000063 +00000-0 +59308-4 0  9996
2 27433 099.0824 268.2033 0013533 278.3008 081.6629 14.12426539946233
Epoch (UTC): 26 September 2020 20:02:29
Eccentricity: 0.0013533
inclination: 99.0824°
perigee height: 841 km
apogee height: 861 km
right ascension of ascending node: 268.2033°
argument of perigee: 278.3008°
revolutions per day: 14.12426539
mean anomaly at epoch: 81.6629°
orbit number at epoch: 94623

The dashed part of the orbit path shows where the satellite is in the earth's shadow,  

DLR